User: anonymous   Login
Location: Moulis
(42.9609°N, 1.0909°E)
Time: 17:32:31
(UTC+00:00)
Language:

Resurs 1-3 - Orbit

View from above orbital plane
View from above orbital plane
View from above satellite
View from above satellite

Ground track
Ground track

The orbit is defined by the following mean orbital elements,

1 23342U          26041.06324617 +.00000000 +00000-0 +10895-3 0 00005
2 23342  97.6735  64.3058 0002006 104.2223 255.9215 14.84888887    04
Epoch (UTC): 10 February 2026 01:31:04
Eccentricity: 0.0002006
inclination: 97.6735°
perigee height: 613 km
apogee height: 615 km
right ascension of ascending node: 64.3058°
argument of perigee: 104.2223°
revolutions per day: 14.84888887
mean anomaly at epoch: 255.9215°

The dashed part of the orbit path shows where the satellite is in the earth's shadow,  

DLR